| time (UTC) | temp F | wind direction | speed MPH | gust MPH | rain 1hr in | rain 24hr in | rain mn in | humidity % | barometer mb |
| 20260510163804 | 48 | 180 | 1.0 | 6.0 | 0.00 | 0.00 | 0.00 | 63 | 1030.1 |
| 20260510162803 | 47 | 81 | 3.0 | 8.0 | 0.00 | 0.00 | 0.00 | 64 | 1030.1 |
| 20260510162306 | 47 | 90 | 5.0 | 8.0 | 0.00 | 0.00 | 0.00 | 64 | 1030.1 |
| 20260510161303 | 46 | 180 | 1.0 | 3.0 | 0.00 | 0.00 | 0.00 | 65 | 1030.1 |
| 20260510155305 | 45 | 0 | 3.0 | 7.0 | 0.00 | 0.00 | 0.00 | 68 | 1030.1 |
| 20260510154803 | 45 | 45 | 5.0 | 6.0 | 0.00 | 0.00 | 0.00 | 68 | 1029.8 |
| 20260510154303 | 44 | 0 | 1.0 | 5.0 | 0.00 | 0.00 | 0.00 | 69 | 1030.1 |
| 20260510153803 | 44 | 45 | 5.0 | 7.0 | 0.00 | 0.00 | 0.00 | 69 | 1030.1 |
| 20260510153303 | 44 | 6 | 4.0 | 6.0 | 0.00 | 0.00 | 0.00 | 70 | 1030.1 |
| 20260510152803 | 44 | 36 | 6.0 | 8.0 | 0.00 | 0.00 | 0.00 | 70 | 1029.8 |
| 20260510152306 | 44 | 30 | 3.0 | 6.0 | 0.00 | 0.00 | 0.00 | 71 | 1029.8 |
| 20260510151304 | 44 | 90 | 8.0 | 10.0 | 0.00 | 0.00 | 0.00 | 71 | 1029.8 |
| 20260510150803 | 44 | 90 | 6.0 | 8.0 | 0.00 | 0.00 | 0.00 | 71 | 1029.8 |
| 20260510150303 | 44 | 148 | 4.0 | 8.0 | 0.00 | 0.00 | 0.00 | 72 | 1029.8 |
| 20260510145802 | 43 | 135 | 5.0 | 8.0 | 0.00 | 0.00 | 0.00 | 73 | 1029.8 |
| 20260510145306 | 43 | 135 | 7.0 | 10.0 | 0.00 | 0.00 | 0.00 | 73 | 1029.4 |
| 20260510144303 | 42 | 128 | 6.0 | 8.0 | 0.00 | 0.00 | 0.00 | 75 | 1029.4 |
| 20260510143804 | 42 | 171 | 7.0 | 10.0 | 0.00 | 0.00 | 0.00 | 76 | 1029.4 |
| 20260510143304 | 42 | 135 | 8.0 | 10.0 | 0.00 | 0.00 | 0.00 | 76 | 1029.4 |
| 20260510142306 | 41 | 135 | 10.0 | 13.0 | 0.00 | 0.00 | 0.00 | 77 | 1029.4 |
| 20260510141803 | 41 | 134 | 8.0 | 12.0 | 0.00 | 0.00 | 0.00 | 78 | 1029.4 |
| 20260510141303 | 41 | 135 | 9.0 | 12.0 | 0.00 | 0.00 | 0.00 | 79 | 1029.4 |
| 20260510140803 | 40 | 127 | 7.0 | 10.0 | 0.00 | 0.00 | 0.00 | 80 | 1029.4 |
| 20260510140303 | 40 | 135 | 9.0 | 12.0 | 0.00 | 0.00 | 0.00 | 81 | 1029.4 |
| 20260510135803 | 40 | 135 | 8.0 | 10.0 | 0.00 | 0.00 | 0.00 | 82 | 1029.1 |
| 20260510135306 | 39 | 130 | 8.0 | 12.0 | 0.00 | 0.00 | 0.00 | 84 | 1029.1 |
| 20260510134803 | 39 | 118 | 9.0 | 12.0 | 0.00 | 0.00 | 0.00 | 85 | 1029.1 |
| 20260510134304 | 39 | 112 | 8.0 | 12.0 | 0.00 | 0.00 | 0.00 | 85 | 1029.1 |
| 20260510133803 | 39 | 90 | 7.0 | 12.0 | 0.00 | 0.00 | 0.00 | 85 | 1029.1 |
| 20260510132803 | 39 | 90 | 8.0 | 13.0 | 0.00 | 0.00 | 0.00 | 84 | 1029.1 |
| 20260510131804 | 39 | 130 | 6.0 | 10.0 | 0.00 | 0.00 | 0.00 | 84 | 1029.1 |
| 20260510131304 | 39 | 115 | 7.0 | 10.0 | 0.00 | 0.00 | 0.00 | 84 | 1029.1 |
| 20260510130304 | 39 | 135 | 8.0 | 10.0 | 0.00 | 0.00 | 0.00 | 83 | 1028.7 |
| 20260510125803 | 39 | 135 | 5.0 | 8.0 | 0.00 | 0.00 | 0.00 | 83 | 1028.7 |
| 20260510125306 | 39 | 107 | 7.0 | 10.0 | 0.00 | 0.00 | 0.00 | 83 | 1028.7 |
| 20260510124802 | 39 | 135 | 7.0 | 12.0 | 0.00 | 0.00 | 0.00 | 83 | 1028.7 |
| 20260510124303 | 39 | 116 | 7.0 | 10.0 | 0.00 | 0.00 | 0.00 | 83 | 1028.7 |
| 20260510123303 | 39 | 135 | 7.0 | 9.0 | 0.00 | 0.00 | 0.00 | 82 | 1028.4 |
| 20260510122803 | 39 | 135 | 6.0 | 8.0 | 0.00 | 0.00 | 0.00 | 82 | 1028.4 |
| 20260510122306 | 39 | 135 | 3.0 | 7.0 | 0.00 | 0.00 | 0.00 | 82 | 1028.4 |
| 20260510121803 | 39 | 180 | 2.0 | 5.0 | 0.00 | 0.00 | 0.00 | 82 | 1028.4 |
| 20260510121304 | 39 | 135 | 3.0 | 7.0 | 0.00 | 0.00 | 0.00 | 82 | 1028.4 |
| 20260510120803 | 39 | 135 | 5.0 | 7.0 | 0.00 | 0.00 | 0.00 | 81 | 1028.4 |
| 20260510120303 | 40 | 135 | 5.0 | 7.0 | 0.00 | 0.00 | 0.00 | 81 | 1028.4 |
| 20260510115803 | 40 | 135 | 3.0 | 5.0 | 0.00 | 0.00 | 0.00 | 80 | 1028.4 |
| 20260510115306 | 40 | 135 | 2.0 | 3.0 | 0.00 | 0.00 | 0.00 | 80 | 1028.4 |
| 20260510114803 | 40 | 180 | 3.0 | 3.0 | 0.00 | 0.00 | 0.00 | 80 | 1028.4 |
| 20260510114303 | 40 | 180 | 3.0 | 5.0 | 0.00 | 0.00 | 0.00 | 80 | 1028.4 |
| 20260510113303 | 40 | 180 | 3.0 | 6.0 | 0.00 | 0.00 | 0.00 | 80 | 1028.4 |
| 20260510112803 | 39 | 180 | 5.0 | 6.0 | 0.00 | 0.00 | 0.00 | 81 | 1028.4 |
| 20260510112305 | 39 | 180 | 4.0 | 7.0 | 0.00 | 0.00 | 0.00 | 81 | 1028.4 |
| 20260510111803 | 39 | 179 | 6.0 | 8.0 | 0.00 | 0.00 | 0.00 | 81 | 1028.4 |
| 20260510110803 | 39 | 180 | 7.0 | 8.0 | 0.00 | 0.00 | 0.00 | 82 | 1028.4 |
| 20260510110304 | 39 | 180 | 6.0 | 8.0 | 0.00 | 0.00 | 0.00 | 82 | 1028.4 |
| 20260510105803 | 39 | 180 | 7.0 | 9.0 | 0.00 | 0.00 | 0.00 | 82 | 1028.4 |
| 20260510105306 | 39 | 157 | 7.0 | 10.0 | 0.00 | 0.00 | 0.00 | 82 | 1028.4 |
| 20260510104804 | 39 | 180 | 7.0 | 10.0 | 0.00 | 0.00 | 0.00 | 82 | 1028.4 |
| 20260510103805 | 39 | 174 | 7.0 | 9.0 | 0.00 | 0.00 | 0.00 | 81 | 1028.4 |
| 20260510102305 | 39 | 180 | 8.0 | 12.0 | 0.00 | 0.00 | 0.00 | 81 | 1028.4 |
| 20260510101303 | 39 | 169 | 9.0 | 13.0 | 0.00 | 0.00 | 0.00 | 81 | 1028.4 |
| 20260510095805 | 39 | 144 | 10.0 | 15.0 | 0.00 | 0.00 | 0.00 | 82 | 1028.4 |
| 20260510095305 | 39 | 134 | 9.0 | 14.0 | 0.00 | 0.00 | 0.00 | 82 | 1028.4 |
| 20260510094803 | 40 | 135 | 10.0 | 15.0 | 0.00 | 0.00 | 0.00 | 81 | 1028.4 |
| 20260510094303 | 40 | 134 | 10.0 | 15.0 | 0.00 | 0.00 | 0.00 | 81 | 1028.4 |
| 20260510093804 | 40 | 132 | 11.0 | 15.0 | 0.00 | 0.00 | 0.00 | 81 | 1028.1 |
| 20260510093303 | 40 | 128 | 10.0 | 14.0 | 0.00 | 0.00 | 0.00 | 81 | 1028.1 |
| 20260510092803 | 40 | 118 | 9.0 | 15.0 | 0.00 | 0.00 | 0.00 | 81 | 1028.1 |
| 20260510092306 | 40 | 135 | 11.0 | 15.0 | 0.00 | 0.00 | 0.00 | 80 | 1028.1 |
| 20260510091803 | 40 | 131 | 11.0 | 16.0 | 0.00 | 0.00 | 0.00 | 78 | 1028.1 |
| 20260510091303 | 41 | 110 | 11.0 | 15.0 | 0.00 | 0.00 | 0.00 | 77 | 1027.8 |
| 20260510090804 | 41 | 133 | 10.0 | 14.0 | 0.00 | 0.00 | 0.00 | 76 | 1027.7 |
| 20260510085804 | 41 | 90 | 3.0 | 5.0 | 0.00 | 0.00 | 0.00 | 75 | 1027.7 |
| 20260510085306 | 41 | 135 | 0.0 | 1.0 | 0.00 | 0.00 | 0.00 | 75 | 1027.7 |
| 20260510084803 | 41 | 135 | 0.0 | 1.0 | 0.00 | 0.00 | 0.00 | 74 | 1027.7 |
| 20260510084303 | 41 | 135 | 0.0 | 1.0 | 0.00 | 0.00 | 0.00 | 74 | 1027.4 |
| 20260510083804 | 41 | 135 | 0.0 | 1.0 | 0.00 | 0.00 | 0.00 | 74 | 1027.4 |
| 20260510083303 | 41 | 135 | 3.0 | 6.0 | 0.00 | 0.00 | 0.00 | 74 | 1027.4 |
| 20260510082804 | 41 | 135 | 5.0 | 7.0 | 0.00 | 0.00 | 0.00 | 73 | 1027.4 |
| 20260510082306 | 41 | 135 | 7.0 | 12.0 | 0.00 | 0.00 | 0.00 | 73 | 1027.4 |
| 20260510081803 | 41 | 135 | 9.0 | 14.0 | 0.00 | 0.00 | 0.00 | 72 | 1027.4 |
| 20260510081303 | 42 | 145 | 6.0 | 12.0 | 0.00 | 0.00 | 0.00 | 72 | 1027.4 |
| 20260510080804 | 42 | 135 | 5.0 | 6.0 | 0.00 | 0.00 | 0.00 | 72 | 1027.4 |
| 20260510080304 | 42 | 135 | 3.0 | 5.0 | 0.00 | 0.00 | 0.00 | 72 | 1027.4 |
| 20260510075804 | 42 | 135 | 3.0 | 5.0 | 0.00 | 0.00 | 0.00 | 72 | 1027.4 |
| 20260510075306 | 42 | 135 | 5.0 | 6.0 | 0.00 | 0.00 | 0.00 | 72 | 1027.4 |
| 20260510074804 | 42 | 135 | 3.0 | 6.0 | 0.00 | 0.00 | 0.00 | 72 | 1027.4 |
| 20260510074304 | 42 | 135 | 1.0 | 2.0 | 0.00 | 0.00 | 0.00 | 71 | 1027.4 |
| 20260510073803 | 42 | 180 | 1.0 | 1.0 | 0.00 | 0.00 | 0.00 | 71 | 1027.4 |
| 20260510072803 | 42 | 180 | 1.0 | 3.0 | 0.00 | 0.00 | 0.00 | 71 | 1027.4 |
| 20260510072305 | 42 | 180 | 3.0 | 6.0 | 0.00 | 0.00 | 0.00 | 71 | 1027.4 |
| 20260510070804 | 42 | 273 | 5.0 | 6.0 | 0.00 | 0.00 | 0.00 | 70 | 1027.4 |
| 20260510070304 | 42 | 315 | 6.0 | 8.0 | 0.00 | 0.00 | 0.00 | 70 | 1027.4 |
| 20260510065803 | 42 | 315 | 7.0 | 10.0 | 0.00 | 0.00 | 0.00 | 71 | 1027.4 |
| 20260510065306 | 42 | 315 | 6.0 | 8.0 | 0.00 | 0.00 | 0.00 | 71 | 1027.4 |
| 20260510064303 | 42 | 311 | 7.0 | 10.0 | 0.00 | 0.00 | 0.00 | 71 | 1027.4 |
| 20260510063304 | 42 | 315 | 6.0 | 10.0 | 0.00 | 0.00 | 0.00 | 70 | 1027.4 |
| 20260510062803 | 42 | 279 | 7.0 | 9.0 | 0.00 | 0.00 | 0.00 | 70 | 1027.4 |
| 20260510062306 | 42 | 294 | 6.0 | 7.0 | 0.00 | 0.00 | 0.00 | 69 | 1027.4 |
| 20260510061803 | 42 | 302 | 6.0 | 9.0 | 0.00 | 0.00 | 0.00 | 69 | 1027.4 |
| 20260510061304 | 43 | 292 | 6.0 | 8.0 | 0.00 | 0.00 | 0.00 | 68 | 1027.4 |
| 20260510060857 | 43 | 300 | 7.0 | 12.0 | 0.00 | 0.00 | 0.00 | 67 | 1027.4 |
| 20260510060304 | 44 | 315 | 7.0 | 12.0 | 0.00 | 0.00 | 0.00 | 67 | 1027.4 |
| 20260510055804 | 44 | 315 | 9.0 | 10.0 | 0.00 | 0.00 | 0.00 | 66 | 1027.4 |
| 20260510055306 | 44 | 305 | 7.0 | 12.0 | 0.00 | 0.00 | 0.00 | 66 | 1027.4 |
| 20260510054804 | 44 | 315 | 8.0 | 13.0 | 0.00 | 0.00 | 0.00 | 66 | 1027.4 |
| 20260510054303 | 45 | 313 | 9.0 | 13.0 | 0.00 | 0.00 | 0.00 | 65 | 1027.1 |
| 20260510053304 | 45 | 315 | 9.0 | 14.0 | 0.00 | 0.00 | 0.00 | 64 | 1026.7 |
| 20260510052803 | 45 | 315 | 7.0 | 12.0 | 0.00 | 0.00 | 0.00 | 62 | 1026.7 |
| 20260510051803 | 47 | 315 | 10.0 | 17.0 | 0.00 | 0.00 | 0.00 | 54 | 1026.7 |
| 20260510051303 | 47 | 315 | 7.0 | 13.0 | 0.00 | 0.00 | 0.00 | 54 | 1026.7 |
| 20260510050803 | 46 | 0 | 5.0 | 7.0 | 0.00 | 0.00 | 0.00 | 54 | 1026.4 |
| 20260510050304 | 47 | 36 | 6.0 | 13.0 | 0.00 | 0.00 | 0.00 | 50 | 1026.1 |
| 20260510045803 | 48 | 0 | 12.0 | 16.0 | 0.00 | 0.00 | 0.00 | 44 | 1025.7 |
| 20260510045306 | 49 | 316 | 6.0 | 7.0 | 0.00 | 0.00 | 0.00 | 42 | 1025.4 |
| 20260510044803 | 48 | 247 | 5.0 | 7.0 | 0.00 | 0.00 | 0.00 | 42 | 1025.4 |
| 20260510044304 | 48 | 225 | 5.0 | 7.0 | 0.00 | 0.00 | 0.00 | 43 | 1025.0 |
| 20260510043804 | 49 | 213 | 3.0 | 7.0 | 0.00 | 0.00 | 0.00 | 45 | 1025.1 |
| 20260510043304 | 49 | 202 | 5.0 | 6.0 | 0.00 | 0.00 | 0.00 | 43 | 1025.3 |
| 20260510042306 | 51 | 225 | 3.0 | 5.0 | 0.00 | 0.00 | 0.00 | 39 | 1025.0 |
| 20260510040804 | 51 | 315 | 1.0 | 5.0 | 0.00 | 0.00 | 0.00 | 40 | 1025.1 |
| 20260510035803 | 51 | 2 | 3.0 | 6.0 | 0.00 | 0.00 | 0.00 | 39 | 1025.0 |
| 20260510035306 | 51 | 270 | 6.0 | 10.0 | 0.00 | 0.00 | 0.00 | 39 | 1025.0 |
| 20260510034804 | 51 | 270 | 6.0 | 10.0 | 0.00 | 0.00 | 0.00 | 38 | 1025.0 |
| 20260510034304 | 51 | 270 | 6.0 | 8.0 | 0.00 | 0.00 | 0.00 | 39 | 1024.7 |
| 20260510033304 | 51 | 270 | 6.0 | 7.0 | 0.00 | 0.00 | 0.00 | 43 | 1024.7 |
| 20260510032306 | 51 | 270 | 6.0 | 7.0 | 0.00 | 0.00 | 0.00 | 44 | 1024.7 |
| 20260510031803 | 51 | 265 | 7.0 | 8.0 | 0.00 | 0.00 | 0.00 | 43 | 1024.7 |
| 20260510030803 | 50 | 225 | 7.0 | 8.0 | 0.00 | 0.00 | 0.00 | 45 | 1024.7 |
| 20260510025804 | 51 | 224 | 6.0 | 7.0 | 0.00 | 0.00 | 0.00 | 45 | 1024.7 |
| 20260510025306 | 51 | 219 | 6.0 | 8.0 | 0.00 | 0.00 | 0.00 | 43 | 1024.7 |
| 20260510024803 | 51 | 222 | 6.0 | 8.0 | 0.00 | 0.00 | 0.00 | 43 | 1024.7 |
| 20260510024303 | 51 | 225 | 7.0 | 8.0 | 0.00 | 0.00 | 0.00 | 43 | 1024.7 |
| 20260510023804 | 51 | 225 | 8.0 | 9.0 | 0.00 | 0.00 | 0.00 | 45 | 1024.7 |
| 20260510022804 | 52 | 247 | 7.0 | 8.0 | 0.00 | 0.00 | 0.00 | 44 | 1024.6 |
| 20260510022306 | 52 | 225 | 7.0 | 8.0 | 0.00 | 0.00 | 0.00 | 44 | 1024.3 |
| 20260510021804 | 52 | 225 | 6.0 | 7.0 | 0.00 | 0.00 | 0.00 | 42 | 1024.3 |
| 20260510020804 | 54 | 270 | 6.0 | 7.0 | 0.00 | 0.00 | 0.00 | 39 | 1024.3 |
| 20260510020303 | 54 | 270 | 6.0 | 7.0 | 0.00 | 0.00 | 0.00 | 39 | 1024.0 |
| 20260510015803 | 54 | 270 | 7.0 | 9.0 | 0.00 | 0.00 | 0.00 | 39 | 1024.0 |
| 20260510015306 | 54 | 270 | 7.0 | 8.0 | 0.00 | 0.00 | 0.00 | 39 | 1024.0 |
| 20260510014803 | 55 | 301 | 6.0 | 8.0 | 0.00 | 0.00 | 0.00 | 37 | 1024.0 |
| 20260510014303 | 56 | 315 | 6.0 | 8.0 | 0.00 | 0.00 | 0.00 | 34 | 1024.0 |
| 20260510013304 | 56 | 270 | 5.0 | 6.0 | 0.00 | 0.00 | 0.00 | 32 | 1024.0 |
| 20260510012804 | 56 | 33 | 2.0 | 5.0 | 0.00 | 0.00 | 0.00 | 34 | 1024.0 |
| 20260510011804 | 57 | 225 | 0.0 | 3.0 | 0.00 | 0.00 | 0.00 | 34 | 1023.7 |
| 20260510011304 | 58 | 225 | 3.0 | 5.0 | 0.00 | 0.00 | 0.00 | 32 | 1023.7 |
| 20260510010805 | 58 | 197 | 1.0 | 3.0 | 0.00 | 0.00 | 0.00 | 31 | 1023.7 |
| 20260510010304 | 59 | 90 | 2.0 | 3.0 | 0.00 | 0.00 | 0.00 | 29 | 1023.6 |
| 20260510005306 | 59 | 90 | 1.0 | 10.0 | 0.00 | 0.00 | 0.00 | 28 | 1023.3 |
| 20260510004804 | 60 | 45 | 6.0 | 9.0 | 0.00 | 0.00 | 0.00 | 27 | 1023.3 |
| 20260510004303 | 60 | 75 | 6.0 | 16.0 | 0.00 | 0.00 | 0.00 | 26 | 1023.3 |
| 20260510003804 | 60 | 92 | 14.0 | 22.0 | 0.00 | 0.00 | 0.00 | 28 | 1023.0 |
| 20260510003303 | 60 | 87 | 5.0 | 13.0 | 0.00 | 0.00 | 0.00 | 30 | 1023.3 |
| 20260510002306 | 62 | 2 | 9.0 | 13.0 | 0.00 | 0.00 | 0.00 | 23 | 1023.3 |
| 20260510001803 | 62 | 0 | 10.0 | 17.0 | 0.00 | 0.00 | 0.00 | 22 | 1023.3 |
| 20260510001304 | 62 | 315 | 17.0 | 22.0 | 0.00 | 0.00 | 0.00 | 22 | 1023.0 |
| 20260510000304 | 62 | 336 | 10.0 | 17.0 | 0.00 | 0.00 | 0.00 | 19 | 1023.0 |
| 20260509235804 | 62 | 315 | 10.0 | 14.0 | 0.00 | 0.00 | 0.00 | 18 | 1023.0 |
| 20260509235307 | 63 | 323 | 9.0 | 29.0 | 0.00 | 0.00 | 0.00 | 19 | 1023.0 |
| 20260509234804 | 63 | 315 | 13.0 | 20.0 | 0.00 | 0.00 | 0.00 | 21 | 1022.7 |
| 20260509234303 | 63 | 324 | 11.0 | 16.0 | 0.00 | 0.00 | 0.00 | 22 | 1022.7 |
| 20260509233304 | 64 | 326 | 5.0 | 9.0 | 0.00 | 0.00 | 0.00 | 21 | 1022.7 |
| 20260509232804 | 64 | 345 | 9.0 | 12.0 | 0.00 | 0.00 | 0.00 | 20 | 1022.7 |
| 20260509232306 | 64 | 322 | 6.0 | 10.0 | 0.00 | 0.00 | 0.00 | 19 | 1022.7 |
| 20260509231804 | 64 | 298 | 7.0 | 16.0 | 0.00 | 0.00 | 0.00 | 20 | 1022.7 |
| 20260509231304 | 63 | 315 | 11.0 | 15.0 | 0.00 | 0.00 | 0.00 | 20 | 1022.7 |
| 20260509230804 | 64 | 315 | 15.0 | 21.0 | 0.00 | 0.00 | 0.00 | 21 | 1022.7 |
| 20260509230304 | 64 | 321 | 13.0 | 18.0 | 0.00 | 0.00 | 0.00 | 21 | 1022.7 |
| 20260509225804 | 65 | 342 | 13.0 | 17.0 | 0.00 | 0.00 | 0.00 | 20 | 1022.4 |
| 20260509225305 | 65 | 315 | 12.0 | 15.0 | 0.00 | 0.00 | 0.00 | 20 | 1022.7 |
| 20260509224803 | 65 | 358 | 9.0 | 16.0 | 0.00 | 0.00 | 0.00 | 21 | 1022.7 |
| 20260509224304 | 64 | 325 | 15.0 | 22.0 | 0.00 | 0.00 | 0.00 | 21 | 1022.7 |
| 20260509223804 | 63 | 1 | 14.0 | 21.0 | 0.00 | 0.00 | 0.00 | 22 | 1022.4 |
| 20260509223304 | 63 | 348 | 15.0 | 20.0 | 0.00 | 0.00 | 0.00 | 22 | 1022.3 |
| 20260509222804 | 64 | 351 | 10.0 | 16.0 | 0.00 | 0.00 | 0.00 | 21 | 1022.6 |
| 20260509222306 | 66 | 336 | 11.0 | 16.0 | 0.00 | 0.00 | 0.00 | 21 | 1022.7 |
| 20260509221803 | 66 | 323 | 14.0 | 18.0 | 0.00 | 0.00 | 0.00 | 21 | 1022.3 |
| 20260509221303 | 66 | 0 | 10.0 | 17.0 | 0.00 | 0.00 | 0.00 | 21 | 1022.3 |
| 20260509220805 | 65 | 325 | 12.0 | 16.0 | 0.00 | 0.00 | 0.00 | 23 | 1022.4 |
| 20260509220304 | 64 | 355 | 12.0 | 16.0 | 0.00 | 0.00 | 0.00 | 23 | 1022.7 |
| 20260509215804 | 63 | 335 | 10.0 | 16.0 | 0.00 | 0.00 | 0.00 | 23 | 1022.7 |
| 20260509214804 | 63 | 321 | 7.0 | 15.0 | 0.00 | 0.00 | 0.00 | 22 | 1022.7 |
| 20260509214304 | 64 | 313 | 7.0 | 14.0 | 0.00 | 0.00 | 0.00 | 22 | 1022.9 |
| 20260509213804 | 64 | 0 | 9.0 | 14.0 | 0.00 | 0.00 | 0.00 | 21 | 1022.7 |
| 20260509213303 | 65 | 350 | 2.0 | 16.0 | 0.00 | 0.00 | 0.00 | 20 | 1022.9 |
| 20260509212803 | 65 | 270 | 19.0 | 28.0 | 0.00 | 0.00 | 0.00 | 22 | 1023.0 |
| 20260509211803 | 64 | 317 | 7.0 | 15.0 | 0.00 | 0.00 | 0.00 | 22 | 1023.0 |
| 20260509211304 | 64 | 300 | 11.0 | 18.0 | 0.00 | 0.00 | 0.00 | 21 | 1023.0 |
| 20260509210805 | 64 | 279 | 9.0 | 16.0 | 0.00 | 0.00 | 0.00 | 21 | 1023.0 |
| 20260509210303 | 65 | 315 | 9.0 | 15.0 | 0.00 | 0.00 | 0.00 | 21 | 1023.0 |
| 20260509205804 | 65 | 264 | 12.0 | 21.0 | 0.00 | 0.00 | 0.00 | 21 | 1023.0 |
| 20260509205307 | 65 | 297 | 15.0 | 22.0 | 0.00 | 0.00 | 0.00 | 21 | 1023.0 |
| 20260509204804 | 65 | 315 | 12.0 | 18.0 | 0.00 | 0.00 | 0.00 | 21 | 1023.0 |
| 20260509204303 | 65 | 278 | 10.0 | 17.0 | 0.00 | 0.00 | 0.00 | 20 | 1023.0 |
| 20260509203304 | 65 | 270 | 17.0 | 28.0 | 0.00 | 0.00 | 0.00 | 20 | 1023.0 |
| 20260509202804 | 64 | 321 | 12.0 | 23.0 | 0.00 | 0.00 | 0.00 | 20 | 1023.2 |
| 20260509201303 | 64 | 299 | 13.0 | 24.0 | 0.00 | 0.00 | 0.00 | 20 | 1023.3 |
| 20260509200304 | 64 | 311 | 15.0 | 25.0 | 0.00 | 0.00 | 0.00 | 21 | 1023.6 |
| 20260509195804 | 64 | 289 | 8.0 | 21.0 | 0.00 | 0.00 | 0.00 | 21 | 1023.6 |
| 20260509194803 | 64 | 279 | 14.0 | 22.0 | 0.00 | 0.00 | 0.00 | 22 | 1023.6 |
| 20260509194304 | 65 | 273 | 19.0 | 28.0 | 0.00 | 0.00 | 0.00 | 22 | 1023.7 |
| 20260509193303 | 64 | 323 | 13.0 | 22.0 | 0.00 | 0.00 | 0.00 | 22 | 1023.6 |
| 20260509192306 | 64 | 305 | 15.0 | 23.0 | 0.00 | 0.00 | 0.00 | 23 | 1023.4 |
| 20260509191803 | 64 | 315 | 15.0 | 30.0 | 0.00 | 0.00 | 0.00 | 23 | 1023.4 |
| 20260509191304 | 63 | 311 | 14.0 | 23.0 | 0.00 | 0.00 | 0.00 | 24 | 1023.7 |
| 20260509190803 | 63 | 316 | 18.0 | 26.0 | 0.00 | 0.00 | 0.00 | 24 | 1023.7 |
| 20260509190304 | 63 | 277 | 14.0 | 25.0 | 0.00 | 0.00 | 0.00 | 24 | 1023.8 |
| 20260509185804 | 63 | 270 | 18.0 | 26.0 | 0.00 | 0.00 | 0.00 | 25 | 1023.7 |
| 20260509185306 | 63 | 276 | 11.0 | 22.0 | 0.00 | 0.00 | 0.00 | 25 | 1023.9 |
| 20260509184804 | 62 | 276 | 23.0 | 37.0 | 0.00 | 0.00 | 0.00 | 25 | 1023.5 |
| 20260509184304 | 62 | 315 | 7.0 | 26.0 | 0.00 | 0.00 | 0.00 | 25 | 1023.6 |
| 20260509183804 | 63 | 283 | 10.0 | 20.0 | 0.00 | 0.00 | 0.00 | 27 | 1023.9 |
| 20260509182803 | 62 | 317 | 9.0 | 20.0 | 0.00 | 0.00 | 0.00 | 26 | 1024.0 |
| 20260509182306 | 61 | 297 | 16.0 | 29.0 | 0.00 | 0.00 | 0.00 | 26 | 1023.4 |
| 20260509181804 | 61 | 8 | 12.0 | 18.0 | 0.00 | 0.00 | 0.00 | 26 | 1024.0 |
| 20260509181304 | 61 | 329 | 12.0 | 24.0 | 0.00 | 0.00 | 0.00 | 26 | 1024.0 |
| 20260509180803 | 62 | 333 | 11.0 | 25.0 | 0.00 | 0.00 | 0.00 | 26 | 1024.3 |
| 20260509175804 | 62 | 0 | 11.0 | 21.0 | 0.00 | 0.00 | 0.00 | 27 | 1024.3 |
| 20260509174804 | 60 | 321 | 11.0 | 18.0 | 0.00 | 0.00 | 0.00 | 26 | 1024.3 |
| 20260509174304 | 60 | 225 | 13.0 | 29.0 | 0.00 | 0.00 | 0.00 | 26 | 1024.3 |
| 20260509173804 | 60 | 270 | 14.0 | 23.0 | 0.00 | 0.00 | 0.00 | 27 | 1024.3 |
| 20260509173304 | 61 | 324 | 16.0 | 24.0 | 0.00 | 0.00 | 0.00 | 28 | 1024.1 |
| 20260509172804 | 60 | 284 | 14.0 | 21.0 | 0.00 | 0.00 | 0.00 | 28 | 1024.0 |
| 20260509171804 | 60 | 323 | 2.0 | 6.0 | 0.00 | 0.00 | 0.00 | 33 | 1024.3 |
| 20260509171304 | 60 | 226 | 6.0 | 12.0 | 0.00 | 0.00 | 0.00 | 33 | 1024.3 |
| 20260509170804 | 62 | 325 | 7.0 | 12.0 | 0.00 | 0.00 | 0.00 | 31 | 1024.3 |
| 20260509170307 | 62 | 57 | 5.0 | 10.0 | 0.00 | 0.00 | 0.00 | 31 | 1024.3 |
| 20260509165804 | 61 | 180 | 2.0 | 5.0 | 0.00 | 0.00 | 0.00 | 32 | 1024.3 |
| 20260509165306 | 61 | 315 | 2.0 | 8.0 | 0.00 | 0.00 | 0.00 | 33 | 1024.4 |
| 20260509164804 | 61 | 14 | 7.0 | 10.0 | 0.00 | 0.00 | 0.00 | 34 | 1024.7 |
| 20260509164304 | 61 | 7 | 6.0 | 10.0 | 0.00 | 0.00 | 0.00 | 35 | 1024.7 |